SCOUT B DEB, 2800

Orbit data source: Space-Track

SCOUT B DEB, 2800 is space debris in LEO originally from a launch on Thu, 04 Aug 1966 UTC launched from the Air Force Western Test Range (AFWTR). Debris objects in space refer to the collection of defunct objects orbiting the Earth. Examples of debris include non-operational satellites, rocket bodies, and fragments generated from explosions, collisions, or faulty payload assembly.

Loading next visibility...
Identifier
2800, 1966-070D
Orbit
LEO
Country
Flag of USUS
Related business
Manufacturer
Unknown
Mission
Spacecraft
Bus & Motor
Unknown
Mass
Unknown
Launch date (UTC)
1966-08-04 (60 years ago)
Launch vehicle
Unknown
Launch site
Air Force Western Test Range (AFWTR)
Object type
Payload
Rocket body
Debris
Shape & HBR
Unknown shape, 0.1 m
Radar Cross Section
Medium (>0.1 m² and <1 m²)

Expand to show TLE details & history
Last TLE update: 2 days ago

TLE from 2 days ago
0 SCOUT B DEB
1 02800U 66070D   26263.46250089  .00002697  00000-0  34391-3 0  9999
2 02800  81.4058 174.1455 1380526 199.6384 154.6110 12.44460696596628
Epoch: 2026-09-20T11:06Z
TLE epoch observation values (Epoch: 2026-09-20T11:06:00.076Z)
Latitude
-0.0001°
Longitude
8.28884°
Altitude
2,494.739 km
Speed
6.261 km/s
True Right ascension
11h 36m 34s
True Declination
0° 00' 00"
Sunlit
Object was in daylight at epoch
Visualization orbit readout
Latitude
Unknown
Longitude
Unknown
Altitude
Unknown
Speed
Unknown
Apparent Right ascension
Unknown
Apparent Declination
Unknown
Sunlit
N/A
Visualization observer readout
Local Sidereal Time
17:13:46
Azimuth
Unknown
Elevation
Unknown
Doppler factor
Unknown
Orbital elements
Apogee altitude
2,570.603 km
Perigee altitude
399.532 km
Semi-major axis
7,863.204 km
Eccentricity
0.13805
Inclination
81.4058°
RAAN
174.1455°
Arg. of periapsis
199.6384°
True anomaly
160.46524°
Mean anomaly
154.611°
Eccentric anomaly
157.62235°
Mean motion
3.11275 °/min
Orbital period
115.65 mins
BSTAR
0.00034391
Loading maneuver chart data...
Computing Atmospheric mass density...
Loading historical data...
Loading historical data...
Loading historical data...
Loading historical data...
Loading historical data...
Loading historical data...
Loading historical data...
Other satellites on launch #70 in the year 1966 (1966-08-04 UTC)

Documentation

Showing up to 5 results
|